Wind_Speed
34 21 20 22 21 19 20 23 23 23 23 23 21 19 22 24 23 24 25 27 28 25 25 28 31 37 41 46 52 51 44 47 50 43 40 37 36 31 29 25 21 22 23
29 26 23 24 25 22 23 24 25 24 22 20 18 20 22 21 17 24 22 14 14 15 17 20 23 22 27 26 28 28 31 25 26 25 24 24 24 22 20 19 20 22 24
28 25 29 26 29 25 23 26 25 22 20 19 18 16 15 17 18 19 19 18 18 18 21 23 23 22 27 26 23 22 18 18 21 22 23 20 19 18 18 19 21 22 23
27 28 26 25 28 24 24 22 19 19 17 15 12 12 12 13 15 16 15 15 17 17 18 20 21 19 20 19 18 18 19 19 18 17 16 16 17 17 20 19 19 21 21
28 30 29 29 26 22 23 21 20 18 16 14 12 12 11 10 11 15 16 18 17 15 15 15 16 18 19 20 21 17 15 15 15 14 14 15 16 18 17 18 18 19 21
34 32 29 28 25 25 22 20 20 19 15 15 14 14 13 13 14 18 17 21 22 20 20 22 22 22 22 19 16 14 13 13 13 14 15 16 16 16 16 17 17 19 22
34 31 27 21 22 21 20 19 20 19 18 19 17 16 18 18 18 21 19 22 21 17 19 20 22 22 21 18 17 15 14 14 14 15 15 17 17 16 16 16 18 21 24
29 28 27 26 26 25 22 22 22 21 22 22 19 18 21 20 19 20 19 20 22 20 19 18 18 19 20 20 19 17 16 15 17 18 18 16 16 16 15 16 19 23 25
28 27 26 27 23 18 19 22 22 21 22 21 19 19 20 18 18 18 18 18 21 21 17 16 16 18 20 21 19 18 17 17 18 18 16 15 15 15 15 17 21 24 26
33 29 29 25 24 20 20 22 21 21 21 21 18 19 21 18 18 17 17 17 21 17 15 16 17 18 19 19 18 17 17 18 17 16 15 14 14 14 15 18 21 24 27
34 33 32 27 26 26 22 15 18 22 22 23 22 20 22 19 19 17 16 18 18 15 15 17 18 18 19 19 18 18 17 18 16 14 14 13 13 13 15 18 21 24 27
29 35 34 31 25 24 25 22 23 24 26 25 22 22 22 20 21 18 16 17 17 16 16 18 18 18 19 20 19 19 17 15 16 14 14 13 12 14 15 18 21 25 28
36 36 35 33 30 30 30 26 27 28 28 27 23 24 24 22 22 18 15 17 17 17 19 21 20 20 19 18 17 17 16 16 15 14 13 12 13 14 16 18 21 25 29
35 29 30 30 29 29 29 28 29 28 29 27 26 27 25 24 23 17 15 17 19 20 18 18 17 17 18 19 19 16 16 16 15 14 14 14 14 16 17 19 23 27 30
29 30 29 30 31 32 32 30 29 29 28 28 29 28 26 25 23 19 16 17 18 15 14 14 16 17 19 16 14 15 15 16 15 15 16 15 16 17 19 21 25 28 31
32 22 28 30 29 31 31 32 32 30 31 31 29 27 27 25 23 20 17 17 15 12 13 14 15 16 13 10 13 15 17 17 16 16 16 17 18 19 20 24 27 30 33
32 28 30 31 30 30 30 29 31 30 28 31 29 27 26 25 22 20 17 18 16 15 16 16 16 17 18 15 16 18 18 18 18 17 18 19 20 21 22 25 28 32 34
34 36 33 33 35 30 29 27 27 26 28 29 28 25 25 23 22 20 20 20 19 17 18 20 20 20 20 19 19 19 20 20 19 19 20 21 22 22 24 27 30 32 34
33 37 41 38 39 31 25 24 24 25 25 26 26 25 25 24 23 22 22 21 20 18 16 18 20 21 21 20 21 22 22 22 21 21 23 22 22 23 25 27 30 33 33
36 32 33 37 35 29 23 24 26 26 25 23 26 28 26 25 23 23 22 22 20 19 21 22 21 20 21 22 23 24 24 24 23 23 24 24 24 25 26 29 31 33 33
36 34 31 28 33 33 28 22 22 22 24 27 30 30 27 23 23 21 20 21 22 22 24 24 24 22 23 24 25 25 27 26 25 25 25 25 25 27 28 29 31 32 33
33 31 34 34 32 31 30 28 26 26 29 30 31 31 27 24 21 20 21 21 22 24 25 25 25 25 25 25 26 27 28 28 28 26 26 26 26 27 29 29 30 32 33
42 39 36 35 33 29 24 26 29 30 30 32 33 31 28 24 21 22 22 22 24 25 26 24 25 27 27 27 27 27 28 30 30 28 27 27 27 28 28 29 30 31 33
48 48 44 40 39 34 30 33 34 34 33 35 32 31 28 23 24 23 24 24 25 27 27 26 26 29 29 29 27 28 28 30 29 28 28 29 28 29 28 29 30 31 32
46 45 45 46 45 41 38 33 36 35 32 29 29 28 26 25 26 25 26 25 27 28 28 28 30 31 29 30 27 25 26 27 28 29 30 29 29 29 28 28 30 31 33
40 39 38 38 39 36 34 35 35 32 32 30 29 29 29 30 29 28 27 27 29 30 30 29 30 31 28 27 25 26 28 28 27 28 30 30 29 29 28 29 31 32 34
Wind_Direction
239 250 222 219 222 232 247 256 256 253 257 261 260 263 261 260 263 264 266 265 269 267 266 268 266 263 265 271 275 270 274 276 286 296 297 299 303 305 303 312 325 322 321
244 243 236 230 228 230 239 251 256 255 257 258 258 260 255 256 260 258 253 246 253 263 268 273 278 297 307 303 298 293 288 300 304 304 308 311 315 314 316 317 318 317 316
238 233 226 240 224 227 234 243 247 248 249 252 257 255 257 251 242 235 236 248 254 260 277 286 286 288 292 303 301 296 307 309 306 308 307 317 316 315 316 316 319 318 319
247 239 226 211 213 220 231 231 231 235 234 241 239 243 243 244 245 253 261 272 275 276 282 287 290 286 287 301 303 304 312 313 313 309 315 316 317 315 316 319 317 316 313
241 234 232 224 214 215 218 220 223 224 231 239 229 225 231 236 250 260 264 266 266 275 285 289 292 298 301 304 304 312 316 310 314 315 316 313 313 318 315 311 313 314 317
238 226 219 206 208 210 215 219 223 226 230 234 228 226 241 249 258 265 266 268 265 270 278 283 290 297 299 304 309 311 306 309 310 311 305 311 315 312 311 315 318 318 324
226 217 213 209 212 212 215 219 227 231 236 238 237 238 247 254 262 269 271 272 271 275 278 283 289 291 298 304 307 305 305 311 310 304 314 319 314 315 317 319 322 328 332
205 211 209 211 217 213 210 215 225 233 239 241 243 247 256 263 270 277 276 267 265 272 277 279 283 291 294 293 294 296 298 303 304 308 312 312 313 316 319 324 329 333 337
204 202 211 217 211 211 212 217 223 229 235 242 247 253 261 267 272 273 274 271 271 277 278 279 279 281 284 284 285 289 291 293 300 306 306 310 313 318 322 328 333 337 337
205 208 220 218 212 214 215 219 223 228 232 244 253 259 264 271 273 276 280 279 276 272 275 278 279 280 279 279 279 283 286 289 298 299 306 309 312 315 323 327 333 335 337
212 212 218 225 225 215 208 221 234 232 232 239 248 256 264 270 271 274 282 283 276 274 273 274 275 275 276 276 279 283 281 289 292 298 302 302 307 313 317 325 329 333 334
211 210 218 227 226 219 221 248 248 238 239 242 247 255 262 266 269 273 281 276 274 273 274 272 272 273 272 272 278 276 274 284 287 291 292 295 301 303 314 321 329 331 333
213 216 219 232 234 226 238 246 245 237 237 243 247 251 258 262 267 272 274 273 274 276 276 275 274 272 271 270 274 269 277 276 280 283 281 288 290 298 308 319 328 330 335
211 218 224 229 231 232 235 238 239 241 241 246 248 249 254 261 266 267 265 270 276 275 273 272 268 267 271 273 273 265 267 272 275 278 278 279 284 294 305 317 323 329 334
215 213 218 228 232 233 236 238 240 241 242 247 247 249 256 262 265 260 264 271 272 270 263 260 262 270 283 274 256 257 267 272 275 274 274 276 283 292 306 314 321 327 331
204 226 228 228 234 239 241 240 239 235 237 243 247 252 256 259 263 260 263 263 258 246 251 258 264 272 276 258 254 264 274 273 274 271 274 276 282 293 304 312 319 325 330
222 227 229 236 238 238 244 247 239 237 239 244 247 252 257 259 259 260 258 247 240 245 254 261 265 272 272 267 268 273 273 276 277 276 275 276 282 292 303 311 319 325 327
219 220 231 225 228 232 236 239 243 244 242 247 255 257 255 254 255 255 251 239 240 250 257 259 265 270 271 264 269 274 274 276 277 278 276 277 283 293 303 310 317 321 324
214 215 211 213 227 217 227 238 244 245 247 251 257 257 254 253 255 252 247 236 241 251 263 270 269 266 266 262 267 272 272 274 277 277 277 280 287 295 303 309 314 319 322
220 213 222 225 219 213 230 243 246 246 244 247 251 252 253 255 253 252 244 239 247 257 263 267 273 267 262 262 267 271 273 274 277 278 280 284 290 296 302 308 314 317 321
218 225 224 229 218 222 232 231 240 245 242 241 244 251 253 253 251 246 240 243 251 257 266 262 264 263 258 262 269 272 270 273 276 279 281 285 289 295 301 308 312 314 319
225 227 221 222 229 240 246 241 244 245 243 242 246 248 250 248 243 240 239 246 256 265 268 263 259 258 255 261 268 272 272 275 275 278 282 287 291 295 300 307 309 313 318
226 230 232 232 232 235 244 255 249 243 244 242 244 246 247 245 241 243 246 251 260 267 269 264 259 254 253 260 268 273 276 277 279 281 285 288 292 296 301 306 309 312 317
236 231 230 236 242 239 248 250 243 237 236 240 240 242 244 243 244 248 251 254 259 262 265 262 257 253 255 261 268 274 281 284 284 285 285 288 293 296 301 304 306 311 316
234 235 235 237 240 241 240 238 235 231 233 239 244 245 244 244 246 250 255 258 259 261 264 263 261 259 258 262 272 283 285 283 284 286 285 289 292 296 300 302 305 310 316
225 229 234 239 240 236 232 233 234 231 237 243 245 246 244 246 248 251 255 258 260 259 260 262 262 263 263 268 271 272 276 280 286 287 286 289 291 296 300 302 305 310 315
Height
5781 5788 5789 5790 5792 5795 5800 5803 5805 5806 5807 5808 5809 5810 5812 5812 5813 5814 5815 5814 5815 5815 5813 5812 5813 5813 5811 5810 5809 5808 5809 5806 5807 5805 5803 5799 5798 5795 5794 5791 5789 5787 5785
5779 5781 5783 5787 5789 5792 5796 5800 5801 5802 5802 5804 5804 5806 5808 5808 5808 5809 5809 5809 5810 5809 5808 5807 5807 5807 5805 5805 5803 5802 5802 5799 5798 5798 5796 5795 5793 5791 5790 5788 5785 5783 5781
5774 5777 5779 5781 5784 5787 5792 5794 5795 5797 5798 5799 5800 5801 5803 5803 5803 5804 5803 5805 5805 5804 5803 5802 5802 5802 5801 5800 5799 5798 5796 5795 5795 5793 5793 5791 5790 5788 5786 5784 5782 5780 5777
5767 5770 5773 5776 5779 5783 5787 5790 5791 5793 5793 5794 5795 5797 5799 5798 5799 5801 5801 5801 5802 5800 5800 5799 5798 5798 5797 5796 5796 5795 5793 5793 5791 5791 5789 5788 5787 5785 5783 5781 5779 5777 5775
5761 5765 5768 5770 5773 5777 5782 5784 5786 5789 5790 5791 5792 5794 5795 5795 5796 5798 5797 5799 5798 5797 5796 5796 5795 5795 5794 5792 5792 5791 5790 5790 5789 5788 5786 5786 5784 5783 5781 5779 5777 5775 5772
5754 5757 5760 5765 5768 5774 5778 5780 5783 5785 5786 5787 5790 5790 5792 5792 5793 5795 5793 5796 5795 5792 5792 5792 5792 5791 5791 5790 5789 5788 5788 5788 5786 5785 5784 5782 5781 5780 5778 5776 5774 5772 5769
5745 5751 5756 5763 5768 5771 5773 5776 5778 5781 5783 5785 5786 5786 5788 5789 5789 5791 5790 5792 5791 5789 5789 5788 5788 5788 5788 5787 5786 5786 5786 5785 5783 5783 5781 5780 5779 5777 5775 5773 5771 5768 5765
5741 5746 5753 5759 5762 5765 5768 5770 5774 5777 5779 5781 5781 5782 5783 5784 5784 5786 5786 5787 5788 5787 5785 5785 5785 5785 5784 5784 5783 5783 5782 5781 5780 5779 5778 5777 5775 5774 5772 5770 5768 5765 5761
5736 5743 5749 5753 5758 5761 5763 5765 5768 5772 5774 5775 5776 5777 5778 5779 5780 5781 5781 5782 5783 5782 5782 5781 5781 5781 5782 5781 5780 5779 5779 5778 5777 5776 5774 5773 5772 5770 5769 5767 5764 5761 5757
5732 5738 5743 5748 5752 5755 5756 5760 5763 5767 5769 5769 5771 5773 5774 5774 5775 5775 5776 5778 5778 5777 5777 5777 5777 5777 5777 5777 5777 5776 5775 5775 5774 5773 5771 5770 5769 5767 5766 5764 5761 5757 5753
5729 5733 5738 5743 5745 5748 5752 5756 5758 5761 5764 5765 5766 5767 5768 5769 5770 5770 5771 5773 5773 5772 5772 5773 5773 5773 5773 5773 5772 5772 5772 5772 5771 5770 5768 5767 5766 5765 5763 5761 5758 5754 5751
5724 5728 5733 5736 5740 5744 5747 5749 5752 5755 5757 5759 5761 5762 5764 5765 5766 5765 5766 5768 5768 5767 5768 5768 5769 5769 5769 5768 5768 5769 5768 5768 5767 5766 5765 5764 5764 5763 5761 5758 5755 5752 5747
5717 5721 5726 5729 5734 5738 5740 5742 5745 5748 5751 5753 5756 5758 5759 5760 5761 5760 5761 5763 5763 5762 5762 5764 5764 5764 5764 5764 5764 5765 5765 5764 5764 5763 5763 5761 5761 5760 5757 5755 5752 5748 5744
5711 5716 5719 5723 5727 5730 5733 5736 5739 5742 5745 5748 5751 5753 5753 5754 5755 5756 5755 5758 5757 5757 5756 5758 5759 5760 5760 5760 5760 5760 5760 5760 5760 5760 5759 5758 5757 5756 5754 5752 5748 5744 5739
5704 5710 5714 5718 5721 5724 5727 5730 5733 5736 5739 5742 5746 5748 5747 5749 5750 5750 5750 5752 5752 5752 5753 5754 5756 5756 5756 5754 5755 5756 5756 5756 5756 5756 5755 5754 5753 5752 5750 5747 5744 5740 5735
5700 5705 5709 5712 5716 5718 5721 5724 5727 5730 5733 5736 5739 5740 5741 5743 5745 5745 5746 5746 5747 5748 5749 5750 5752 5752 5752 5751 5752 5753 5753 5753 5752 5752 5751 5749 5749 5747 5745 5743 5739 5735 5731
5694 5699 5704 5709 5712 5713 5715 5717 5720 5724 5727 5729 5732 5733 5736 5738 5739 5739 5741 5742 5743 5744 5746 5747 5747 5748 5749 5749 5749 5749 5749 5748 5748 5747 5747 5746 5744 5743 5741 5738 5734 5730 5725
5683 5689 5696 5702 5705 5707 5709 5711 5714 5718 5722 5723 5725 5727 5729 5731 5732 5734 5736 5737 5739 5740 5741 5743 5743 5744 5744 5745 5745 5745 5744 5744 5744 5743 5742 5741 5740 5738 5736 5733 5729 5726 5721
5676 5681 5687 5690 5693 5699 5704 5706 5709 5712 5716 5718 5719 5722 5723 5724 5727 5728 5730 5732 5735 5735 5737 5738 5738 5739 5739 5740 5740 5740 5740 5739 5739 5738 5738 5737 5736 5734 5731 5728 5725 5721 5717
5670 5676 5682 5686 5688 5693 5698 5701 5704 5707 5711 5712 5713 5714 5717 5720 5721 5722 5725 5727 5729 5729 5731 5732 5733 5734 5735 5735 5735 5735 5735 5734 5734 5734 5733 5732 5730 5728 5726 5723 5720 5716 5712
5666 5669 5676 5679 5684 5688 5692 5695 5698 5702 5704 5705 5706 5708 5712 5713 5715 5717 5720 5721 5723 5724 5726 5726 5727 5728 5729 5729 5729 5730 5729 5729 5729 5729 5728 5726 5725 5723 5721 5718 5715 5711 5707
5659 5665 5671 5676 5681 5684 5687 5690 5692 5695 5696 5699 5700 5702 5705 5708 5709 5711 5714 5716 5717 5719 5719 5719 5720 5721 5722 5723 5724 5723 5723 5723 5723 5723 5722 5721 5720 5718 5715 5713 5709 5706 5701
5651 5657 5662 5668 5673 5678 5681 5683 5686 5687 5690 5692 5694 5696 5699 5701 5703 5705 5708 5710 5711 5712 5712 5712 5713 5714 5716 5717 5717 5718 5718 5717 5717 5717 5716 5715 5714 5711 5709 5707 5704 5700 5696
5642 5649 5655 5660 5665 5671 5674 5676 5679 5681 5682 5684 5686 5689 5692 5694 5696 5698 5700 5703 5704 5704 5705 5705 5705 5706 5709 5710 5711 5711 5712 5711 5711 5711 5710 5709 5707 5705 5704 5701 5698 5695 5691
5634 5639 5645 5651 5656 5662 5665 5668 5671 5673 5675 5677 5679 5682 5685 5687 5688 5690 5692 5694 5696 5697 5698 5698 5698 5699 5701 5703 5704 5705 5705 5705 5705 5704 5703 5702 5701 5699 5698 5695 5692 5689 5685
5625 5631 5636 5641 5646 5652 5657 5660 5662 5665 5667 5669 5671 5673 5676 5678 5680 5682 5685 5687 5688 5689 5690 5691 5692 5692 5694 5696 5697 5698 5698 5698 5698 5698 5696 5695 5694 5693 5691 5689 5686 5682 5679